| time (UTC) | temp F | wind direction | speed MPH | gust MPH | rain 1hr in | rain 24hr in | rain mn in | humidity % | barometer mb |
| 20260905004555 | 67 | 297 | 0.0 | 4.0 | 0.00 | 0.48 | 0.00 | 92 | 1012.5 |
| 20260905004055 | 67 | 0 | 0.0 | 2.0 | 0.00 | 0.48 | 0.00 | 92 | 1012.1 |
| 20260905003054 | 68 | 340 | 0.0 | 4.0 | 0.00 | 0.48 | 0.00 | 91 | 1012.1 |
| 20260905002554 | 68 | 334 | 2.0 | 5.0 | 0.00 | 0.48 | 0.00 | 91 | 1011.8 |
| 20260905002054 | 69 | 292 | 2.0 | 5.0 | 0.00 | 0.48 | 0.00 | 90 | 1011.8 |
| 20260905001553 | 69 | 300 | 0.0 | 4.0 | 0.00 | 0.48 | 0.00 | 90 | 1012.1 |
| 20260905001053 | 69 | 262 | 1.0 | 4.0 | 0.00 | 0.48 | 0.00 | 89 | 1011.8 |
| 20260905000053 | 70 | 301 | 2.0 | 5.0 | 0.00 | 0.48 | 0.00 | 88 | 1011.8 |
| 20260904235552 | 71 | 311 | 3.0 | 5.0 | 0.00 | 0.48 | 0.00 | 87 | 1011.8 |
| 20260904235052 | 71 | 306 | 0.0 | 6.0 | 0.00 | 0.48 | 0.00 | 87 | 1011.8 |
| 20260904234552 | 71 | 331 | 2.0 | 6.0 | 0.00 | 0.48 | 0.00 | 86 | 1011.8 |
| 20260904234051 | 72 | 276 | 0.0 | 4.0 | 0.00 | 0.48 | 0.00 | 84 | 1011.8 |
| 20260904233551 | 73 | 297 | 2.0 | 4.0 | 0.00 | 0.48 | 0.00 | 84 | 1011.8 |
| 20260904233051 | 73 | 341 | 2.0 | 3.0 | 0.00 | 0.48 | 0.00 | 83 | 1011.8 |
| 20260904232552 | 73 | 337 | 0.0 | 3.0 | 0.00 | 0.48 | 0.00 | 84 | 1011.8 |
| 20260904232050 | 74 | 262 | 0.0 | 3.0 | 0.00 | 0.48 | 0.00 | 83 | 1011.8 |
| 20260904231050 | 74 | 254 | 1.0 | 6.0 | 0.00 | 0.48 | 0.00 | 82 | 1011.5 |
| 20260904230049 | 75 | 279 | 0.0 | 3.0 | 0.00 | 0.48 | 0.00 | 80 | 1011.5 |
| 20260904225550 | 75 | 307 | 2.0 | 6.0 | 0.00 | 0.48 | 0.00 | 80 | 1011.5 |
| 20260904225048 | 75 | 332 | 2.0 | 6.0 | 0.00 | 0.48 | 0.00 | 79 | 1011.5 |
| 20260904224550 | 75 | 270 | 1.0 | 5.0 | 0.00 | 0.49 | 0.00 | 79 | 1011.0 |
| 20260904224049 | 76 | 292 | 3.0 | 4.0 | 0.00 | 0.49 | 0.00 | 77 | 1011.5 |
| 20260904223549 | 76 | 282 | 0.0 | 4.0 | 0.00 | 0.49 | 0.00 | 78 | 1011.5 |
| 20260904223047 | 76 | 306 | 1.0 | 4.0 | 0.00 | 0.49 | 0.00 | 78 | 1011.0 |
| 20260904222548 | 77 | 274 | 3.0 | 4.0 | 0.00 | 0.50 | 0.00 | 77 | 1011.0 |
| 20260904222046 | 77 | 254 | 1.0 | 5.0 | 0.00 | 0.52 | 0.00 | 77 | 1011.0 |
| 20260904221046 | 77 | 212 | 0.0 | 4.0 | 0.00 | 0.61 | 0.00 | 77 | 1011.0 |
| 20260904220046 | 77 | 257 | 1.0 | 4.0 | 0.00 | 0.62 | 0.00 | 77 | 1011.0 |
| 20260904215547 | 76 | 312 | 2.0 | 4.0 | 0.00 | 0.65 | 0.00 | 78 | 1011.0 |
| 20260904215045 | 77 | 262 | 0.0 | 4.0 | 0.00 | 0.74 | 0.00 | 76 | 1011.0 |
| 20260904214545 | 78 | 264 | 2.0 | 4.0 | 0.00 | 1.08 | 0.00 | 76 | 1011.0 |
| 20260904214045 | 77 | 251 | 1.0 | 3.0 | 0.00 | 1.26 | 0.00 | 77 | 1011.0 |
| 20260904213546 | 77 | 315 | 2.0 | 5.0 | 0.00 | 1.26 | 0.00 | 77 | 1010.7 |
| 20260904212545 | 78 | 270 | 3.0 | 5.0 | 0.00 | 1.26 | 0.00 | 77 | 1010.7 |
| 20260904212044 | 78 | 355 | 0.0 | 5.0 | 0.00 | 1.26 | 0.00 | 76 | 1011.0 |
| 20260904211544 | 77 | 319 | 2.0 | 6.0 | 0.00 | 1.26 | 0.00 | 77 | 1011.0 |
| 20260904211042 | 77 | 261 | 0.0 | 6.0 | 0.00 | 1.26 | 0.00 | 78 | 1011.0 |
| 20260904210544 | 76 | 292 | 2.0 | 5.0 | 0.00 | 1.26 | 0.00 | 76 | 1011.0 |
| 20260904210042 | 77 | 243 | 1.0 | 4.0 | 0.00 | 1.26 | 0.00 | 75 | 1011.0 |
| 20260904205543 | 79 | 300 | 2.0 | 4.0 | 0.00 | 1.26 | 0.00 | 76 | 1011.0 |
| 20260904205041 | 78 | 243 | 1.0 | 4.0 | 0.00 | 1.26 | 0.00 | 75 | 1011.0 |
| 20260904203542 | 78 | 206 | 0.0 | 4.0 | 0.00 | 1.26 | 0.00 | 74 | 1011.5 |
| 20260904203040 | 78 | 286 | 2.0 | 4.0 | 0.00 | 1.26 | 0.00 | 74 | 1011.0 |
| 20260904202039 | 77 | 315 | 2.0 | 5.0 | 0.00 | 1.26 | 0.00 | 75 | 1011.0 |
| 20260904201541 | 76 | 243 | 2.0 | 5.0 | 0.00 | 1.26 | 0.00 | 76 | 1011.0 |
| 20260904201039 | 77 | 270 | 0.0 | 5.0 | 0.00 | 1.26 | 0.00 | 77 | 1011.0 |
| 20260904200538 | 76 | 289 | 0.0 | 4.0 | 0.00 | 1.26 | 0.00 | 77 | 1011.0 |
| 20260904200038 | 76 | 225 | 2.0 | 5.0 | 0.00 | 1.26 | 0.00 | 78 | 1011.5 |
| 20260904195540 | 76 | 236 | 2.0 | 5.0 | 0.00 | 1.26 | 0.00 | 80 | 1011.5 |
| 20260904195038 | 75 | 276 | 1.0 | 4.0 | 0.00 | 1.26 | 0.00 | 79 | 1011.5 |
| 20260904194537 | 75 | 264 | 1.0 | 5.0 | 0.00 | 1.26 | 0.00 | 79 | 1011.5 |
| 20260904194037 | 76 | 255 | 1.0 | 5.0 | 0.00 | 1.26 | 0.00 | 78 | 1011.5 |
| 20260904193538 | 75 | 0 | 1.0 | 5.0 | 0.00 | 1.26 | 0.00 | 80 | 1011.0 |
| 20260904193036 | 74 | 270 | 1.0 | 5.0 | 0.00 | 1.26 | 0.00 | 79 | 1011.5 |
| 20260904192537 | 75 | 217 | 2.0 | 5.0 | 0.00 | 1.26 | 0.00 | 79 | 1011.5 |
| 20260904191536 | 74 | 294 | 3.0 | 5.0 | 0.00 | 1.26 | 0.00 | 79 | 1011.5 |
| 20260904191036 | 74 | 262 | 0.0 | 3.0 | 0.00 | 1.26 | 0.00 | 80 | 1011.5 |
| 20260904190535 | 74 | 216 | 0.0 | 3.0 | 0.00 | 1.26 | 0.00 | 80 | 1011.5 |
| 20260904190035 | 74 | 356 | 2.0 | 4.0 | 0.00 | 1.26 | 0.00 | 81 | 1011.5 |
| 20260904185534 | 73 | 274 | 0.0 | 4.0 | 0.00 | 1.26 | 0.00 | 83 | 1011.5 |
| 20260904185035 | 73 | 270 | 0.0 | 2.0 | 0.00 | 1.26 | 0.00 | 82 | 1011.5 |
| 20260904183534 | 72 | 325 | 0.0 | 6.0 | 0.00 | 1.26 | 0.00 | 85 | 1011.5 |
| 20260904182530 | 71 | 315 | 2.0 | 4.0 | 0.00 | 1.26 | 0.00 | 85 | 1011.5 |
| 20260904182029 | 71 | 180 | 0.0 | 3.0 | 0.00 | 1.26 | 0.00 | 89 | 1011.5 |
| 20260904181528 | 70 | 352 | 0.0 | 3.0 | 0.00 | 1.26 | 0.00 | 87 | 1011.5 |
| 20260904181029 | 70 | 188 | 0.0 | 4.0 | 0.00 | 1.26 | 0.00 | 89 | 1011.5 |
| 20260904180528 | 70 | 319 | 2.0 | 5.0 | 0.00 | 1.26 | 0.00 | 89 | 1011.5 |
| 20260904180031 | 68 | 262 | 0.0 | 7.0 | 0.00 | 1.26 | 0.00 | 90 | 1011.0 |
| 20260904175529 | 69 | 264 | 2.0 | 7.0 | 0.00 | 1.26 | 0.00 | 87 | 1011.5 |
| 20260904175029 | 69 | 250 | 2.0 | 4.0 | 0.00 | 1.26 | 0.00 | 90 | 1011.5 |
| 20260904174530 | 68 | 261 | 0.0 | 2.0 | 0.00 | 1.26 | 0.00 | 90 | 1011.5 |
| 20260904174028 | 68 | 188 | 0.0 | 3.0 | 0.00 | 1.26 | 0.00 | 91 | 1011.5 |
| 20260904173529 | 68 | 315 | 0.0 | 3.0 | 0.00 | 1.26 | 0.00 | 91 | 1011.5 |
| 20260904173029 | 67 | 254 | 0.0 | 6.0 | 0.00 | 1.26 | 0.00 | 92 | 1011.5 |
| 20260904172531 | 67 | 283 | 0.0 | 6.0 | 0.00 | 1.26 | 0.00 | 93 | 1011.5 |
| 20260904172029 | 67 | 270 | 0.0 | 3.0 | 0.00 | 1.26 | 0.00 | 93 | 1011.5 |
| 20260904171530 | 66 | 289 | 1.0 | 5.0 | 0.00 | 1.26 | 0.00 | 92 | 1011.5 |
| 20260904171028 | 67 | 228 | 2.0 | 6.0 | 0.00 | 1.26 | 0.00 | 93 | 1011.5 |
| 20260904170529 | 66 | 265 | 2.0 | 6.0 | 0.00 | 1.26 | 0.00 | 92 | 1011.0 |
| 20260904170027 | 66 | 334 | 1.0 | 5.0 | 0.00 | 1.26 | 0.00 | 95 | 1011.0 |
| 20260904165529 | 65 | 334 | 0.0 | 5.0 | 0.00 | 1.26 | 0.00 | 96 | 1011.5 |
| 20260904164528 | 64 | 309 | 0.0 | 6.0 | 0.00 | 1.26 | 0.00 | 98 | 1011.5 |
| 20260904164026 | 63 | 326 | 4.0 | 6.0 | 0.00 | 1.26 | 0.00 | 98 | 1011.0 |
| 20260904163527 | 64 | 261 | 0.0 | 5.0 | 0.00 | 1.26 | 0.00 | 99 | 1011.0 |
| 20260904163025 | 63 | 289 | 1.0 | 6.0 | 0.00 | 1.26 | 0.00 | 99 | 1011.0 |
| 20260904162025 | 64 | 254 | 0.0 | 4.0 | 0.00 | 1.26 | 0.00 | 99 | 1011.0 |
| 20260904161527 | 64 | 321 | 0.0 | 4.0 | 0.00 | 1.26 | 0.00 | 99 | 1011.0 |
| 20260904161025 | 63 | 270 | 1.0 | 4.0 | 0.00 | 1.26 | 0.00 | 99 | 1011.0 |
| 20260904160526 | 64 | 254 | 1.0 | 4.0 | 0.00 | 1.26 | 0.00 | 99 | 1011.0 |
| 20260904160024 | 63 | 324 | 0.0 | 4.0 | 0.00 | 1.26 | 0.00 | 99 | 1011.0 |
| 20260904155526 | 63 | 315 | 2.0 | 3.0 | 0.00 | 1.26 | 0.00 | 99 | 1011.0 |
| 20260904155023 | 63 | 195 | 0.0 | 3.0 | 0.00 | 1.26 | 0.00 | 99 | 1011.0 |
| 20260904154525 | 63 | 348 | 0.0 | 3.0 | 0.00 | 1.26 | 0.00 | 99 | 1011.0 |
| 20260904153524 | 63 | 255 | 0.0 | 2.0 | 0.00 | 1.26 | 0.00 | 99 | 1010.7 |
| 20260904153022 | 63 | 261 | 0.0 | 2.0 | 0.00 | 1.26 | 0.00 | 99 | 1011.0 |
| 20260904152021 | 62 | 288 | 2.0 | 2.0 | 0.00 | 1.26 | 0.00 | 99 | 1011.0 |
| 20260904151021 | 63 | 331 | 0.0 | 3.0 | 0.00 | 1.26 | 0.00 | 99 | 1010.3 |
| 20260904150522 | 63 | 0 | 0.0 | 3.0 | 0.00 | 1.26 | 0.00 | 99 | 1010.3 |
| 20260904150020 | 63 | 337 | 0.0 | 2.0 | 0.00 | 1.26 | 0.00 | 99 | 1010.3 |
| 20260904145521 | 62 | 240 | 2.0 | 3.0 | 0.00 | 1.26 | 0.00 | 99 | 1010.3 |
| 20260904145021 | 63 | 255 | 0.0 | 3.0 | 0.00 | 1.26 | 0.00 | 99 | 1010.3 |
| 20260904144520 | 63 | 291 | 0.0 | 2.0 | 0.00 | 1.26 | 0.00 | 99 | 1010.0 |
| 20260904144019 | 63 | 270 | 0.0 | 2.0 | 0.00 | 1.26 | 0.00 | 99 | 1010.3 |
| 20260904143521 | 62 | 188 | 0.0 | 2.0 | 0.00 | 1.26 | 0.00 | 99 | 1010.3 |
| 20260904143019 | 62 | 249 | 0.0 | 2.0 | 0.00 | 1.26 | 0.00 | 99 | 1010.7 |
| 20260904142519 | 62 | 270 | 0.0 | 2.0 | 0.00 | 1.26 | 0.00 | 99 | 1010.3 |
| 20260904142018 | 63 | 7 | 0.0 | 2.0 | 0.00 | 1.26 | 0.00 | 99 | 1010.0 |
| 20260904141519 | 63 | 270 | 1.0 | 2.0 | 0.00 | 1.26 | 0.00 | 99 | 1009.7 |
| 20260904141017 | 63 | 353 | 0.0 | 2.0 | 0.00 | 1.26 | 0.00 | 99 | 1009.7 |
| 20260904140518 | 62 | 290 | 2.0 | 2.0 | 0.00 | 1.26 | 0.00 | 99 | 1009.7 |
| 20260904140017 | 63 | 300 | 0.0 | 2.0 | 0.00 | 1.26 | 0.00 | 99 | 1009.7 |
| 20260904135518 | 63 | 262 | 0.0 | 2.0 | 0.00 | 1.26 | 0.00 | 99 | 1009.7 |
| 20260904135017 | 62 | 297 | 0.0 | 2.0 | 0.00 | 1.26 | 0.00 | 99 | 1009.7 |
| 20260904134518 | 62 | 270 | 0.0 | 3.0 | 0.00 | 1.26 | 0.00 | 99 | 1009.7 |
| 20260904134015 | 62 | 294 | 0.0 | 3.0 | 0.00 | 1.26 | 0.00 | 99 | 1009.7 |
| 20260904133517 | 62 | 279 | 0.0 | 2.0 | 0.00 | 1.26 | 0.00 | 99 | 1009.7 |
| 20260904133015 | 62 | 294 | 0.0 | 2.0 | 0.00 | 1.26 | 0.00 | 99 | 1009.7 |
| 20260904132516 | 62 | 300 | 0.0 | 2.0 | 0.00 | 1.26 | 0.00 | 99 | 1009.3 |
| 20260904132015 | 62 | 337 | 1.0 | 1.0 | 0.00 | 1.26 | 0.00 | 99 | 1009.7 |
| 20260904131515 | 62 | 337 | 0.0 | 2.0 | 0.00 | 1.26 | 0.00 | 99 | 1009.7 |
| 20260904130514 | 62 | 261 | 0.0 | 1.0 | 0.00 | 1.26 | 0.00 | 99 | 1009.3 |
| 20260904130013 | 62 | 331 | 0.0 | 1.0 | 0.00 | 1.26 | 0.00 | 99 | 1009.3 |
| 20260904125515 | 62 | 261 | 0.0 | 2.0 | 0.00 | 1.26 | 0.00 | 99 | 1009.0 |
| 20260904125012 | 62 | 0 | 0.0 | 2.0 | 0.00 | 1.26 | 0.00 | 99 | 1009.3 |
| 20260904124513 | 62 | 270 | 2.0 | 2.0 | 0.00 | 1.26 | 0.00 | 99 | 1009.3 |
| 20260904124012 | 62 | 346 | 0.0 | 2.0 | 0.00 | 1.26 | 0.00 | 99 | 1009.3 |
| 20260904123513 | 62 | 270 | 0.0 | 2.0 | 0.00 | 1.26 | 0.00 | 99 | 1009.3 |
| 20260904123011 | 62 | 270 | 0.0 | 0.0 | 0.00 | 1.26 | 0.00 | 99 | 1009.3 |
| 20260904122513 | 62 | 270 | 0.0 | 2.0 | 0.00 | 1.26 | 0.00 | 99 | 1009.3 |
| 20260904122011 | 62 | 270 | 1.0 | 2.0 | 0.00 | 1.26 | 0.00 | 99 | 1009.3 |
| 20260904121512 | 62 | 352 | 0.0 | 1.0 | 0.00 | 1.26 | 0.00 | 99 | 1009.0 |
| 20260904121010 | 62 | 0 | 0.0 | 2.0 | 0.00 | 1.26 | 0.00 | 99 | 1009.0 |
| 20260904120511 | 62 | 0 | 0.0 | 2.0 | 0.00 | 1.26 | 0.00 | 99 | 1009.0 |
| 20260904120010 | 62 | 352 | 0.0 | 0.0 | 0.00 | 1.26 | 0.00 | 99 | 1009.0 |
| 20260904115510 | 62 | 352 | 0.0 | 0.0 | 0.00 | 1.26 | 0.00 | 99 | 1009.0 |
| 20260904114510 | 62 | 352 | 0.0 | 0.0 | 0.00 | 1.26 | 0.00 | 99 | 1009.0 |
| 20260904114008 | 62 | 352 | 0.0 | 0.0 | 0.00 | 1.26 | 0.00 | 99 | 1008.5 |
| 20260904113509 | 62 | 352 | 0.0 | 0.0 | 0.00 | 1.26 | 0.00 | 99 | 1008.5 |
| 20260904113008 | 62 | 352 | 0.0 | 0.0 | 0.00 | 1.26 | 0.00 | 99 | 1009.0 |
| 20260904112509 | 62 | 352 | 0.0 | 0.0 | 0.00 | 1.26 | 0.00 | 99 | 1008.5 |
| 20260904112007 | 62 | 352 | 0.0 | 0.0 | 0.00 | 1.26 | 0.00 | 99 | 1008.5 |
| 20260904111508 | 62 | 352 | 0.0 | 0.0 | 0.00 | 1.26 | 0.00 | 99 | 1008.2 |
| 20260904111007 | 62 | 352 | 0.0 | 1.0 | 0.00 | 1.26 | 0.00 | 99 | 1008.2 |
| 20260904105007 | 62 | 270 | 0.0 | 2.0 | 0.00 | 1.26 | 0.00 | 99 | 1008.5 |
| 20260904104505 | 62 | 331 | 0.0 | 2.0 | 0.00 | 1.26 | 0.00 | 99 | 1008.2 |
| 20260904104005 | 62 | 297 | 0.0 | 1.0 | 0.00 | 1.26 | 0.00 | 99 | 1008.2 |
| 20260904103506 | 62 | 0 | 0.0 | 0.0 | 0.00 | 1.26 | 0.00 | 99 | 1007.9 |
| 20260904103005 | 61 | 0 | 0.0 | 0.0 | 0.00 | 1.26 | 0.00 | 99 | 1008.2 |
| 20260904102502 | 62 | 0 | 0.0 | 0.0 | 0.00 | 1.26 | 0.00 | 99 | 1008.2 |
| 20260904101502 | 61 | 0 | 0.0 | 0.0 | 0.00 | 1.26 | 0.00 | 99 | 1008.2 |
| 20260904101001 | 61 | 0 | 0.0 | 0.0 | 0.00 | 1.26 | 0.00 | 99 | 1008.2 |
| 20260904100502 | 61 | 0 | 0.0 | 0.0 | 0.00 | 1.26 | 0.00 | 99 | 1008.2 |
| 20260904100001 | 61 | 0 | 0.0 | 0.0 | 0.00 | 1.26 | 0.00 | 99 | 1007.9 |
| 20260904095503 | 61 | 0 | 0.0 | 0.0 | 0.00 | 1.26 | 0.00 | 99 | 1007.9 |
| 20260904095001 | 61 | 0 | 0.0 | 0.0 | 0.00 | 1.26 | 0.00 | 99 | 1008.2 |
| 20260904094503 | 61 | 0 | 0.0 | 0.0 | 0.00 | 1.26 | 0.00 | 99 | 1008.2 |
| 20260904094000 | 61 | 0 | 0.0 | 1.0 | 0.00 | 1.26 | 0.00 | 99 | 1007.9 |
| 20260904092502 | 61 | 352 | 0.0 | 0.0 | 0.00 | 1.26 | 0.00 | 99 | 1007.9 |
| 20260904092000 | 61 | 352 | 0.0 | 0.0 | 0.00 | 1.26 | 0.00 | 99 | 1007.9 |
| 20260904091502 | 61 | 352 | 0.0 | 0.0 | 0.00 | 1.26 | 0.00 | 99 | 1007.5 |
| 20260904091000 | 61 | 352 | 0.0 | 0.0 | 0.00 | 1.26 | 0.00 | 99 | 1007.5 |
| 20260904090459 | 61 | 352 | 0.0 | 2.0 | 0.00 | 1.26 | 0.00 | 99 | 1007.5 |
| 20260904084958 | 61 | 215 | 0.0 | 0.0 | 0.00 | 1.26 | 0.00 | 99 | 1007.5 |
| 20260904084459 | 61 | 215 | 0.0 | 1.0 | 0.00 | 1.26 | 0.00 | 99 | 1007.5 |
| 20260904083457 | 61 | 353 | 0.0 | 1.0 | 0.00 | 1.26 | 0.00 | 99 | 1007.5 |
| 20260904082457 | 61 | 348 | 0.0 | 0.0 | 0.00 | 1.26 | 0.00 | 99 | 1007.2 |
| 20260904081957 | 61 | 348 | 0.0 | 0.0 | 0.00 | 1.26 | 0.00 | 99 | 1006.9 |
| 20260904081456 | 61 | 348 | 0.0 | 0.0 | 0.00 | 1.26 | 0.00 | 99 | 1006.9 |
| 20260904080957 | 61 | 348 | 0.0 | 1.0 | 0.00 | 1.26 | 0.00 | 99 | 1006.9 |
| 20260904080456 | 61 | 348 | 0.0 | 2.0 | 0.00 | 1.26 | 0.00 | 99 | 1006.9 |
| 20260904074955 | 61 | 286 | 0.0 | 0.0 | 0.00 | 1.26 | 0.00 | 99 | 1006.9 |
| 20260904074456 | 62 | 286 | 0.0 | 2.0 | 0.00 | 1.26 | 0.00 | 99 | 1006.9 |
| 20260904073955 | 62 | 286 | 0.0 | 2.0 | 0.00 | 1.26 | 0.00 | 99 | 1006.9 |
| 20260904073454 | 62 | 337 | 0.0 | 2.0 | 0.00 | 1.26 | 0.00 | 99 | 1006.9 |
| 20260904072953 | 62 | 254 | 0.0 | 2.0 | 0.00 | 1.26 | 0.00 | 99 | 1006.9 |
| 20260904071953 | 62 | 246 | 0.0 | 2.0 | 0.00 | 1.26 | 0.00 | 99 | 1006.9 |
| 20260904071454 | 62 | 286 | 0.0 | 2.0 | 0.00 | 1.26 | 0.00 | 99 | 1006.9 |
| 20260904070952 | 62 | 254 | 0.0 | 2.0 | 0.00 | 1.26 | 0.00 | 99 | 1006.9 |
| 20260904070454 | 62 | 254 | 0.0 | 2.0 | 0.00 | 1.26 | 0.00 | 99 | 1006.9 |
| 20260904065952 | 62 | 353 | 0.0 | 3.0 | 0.00 | 1.26 | 0.00 | 99 | 1007.2 |
| 20260904065453 | 62 | 300 | 2.0 | 3.0 | 0.00 | 1.26 | 0.00 | 99 | 1006.9 |
| 20260904064951 | 62 | 327 | 0.0 | 2.0 | 0.00 | 1.26 | 0.00 | 99 | 1006.9 |
| 20260904064452 | 62 | 294 | 0.0 | 2.0 | 0.00 | 1.26 | 0.00 | 99 | 1006.9 |
| 20260904062450 | 62 | 345 | 0.0 | 4.0 | 0.00 | 1.26 | 0.00 | 99 | 1006.9 |
| 20260904061950 | 62 | 279 | 0.0 | 4.0 | 0.00 | 1.26 | 0.00 | 99 | 1006.9 |
| 20260904061451 | 62 | 355 | 0.0 | 3.0 | 0.00 | 1.26 | 0.00 | 99 | 1007.2 |
| 20260904060949 | 62 | 348 | 3.0 | 4.0 | 0.00 | 1.26 | 0.00 | 99 | 1006.9 |
| 20260904055948 | 62 | 8 | 0.0 | 3.0 | 0.00 | 1.26 | 0.00 | 99 | 1007.2 |
| 20260904055449 | 62 | 332 | 0.0 | 3.0 | 0.00 | 1.26 | 0.00 | 99 | 1006.9 |
| 20260904054948 | 61 | 325 | 0.0 | 3.0 | 0.00 | 1.26 | 0.00 | 99 | 1007.2 |
| 20260904054448 | 61 | 279 | 0.0 | 3.0 | 0.00 | 1.26 | 0.00 | 99 | 1006.9 |
| 20260904053948 | 62 | 320 | 2.0 | 3.0 | 0.00 | 1.26 | 0.00 | 99 | 1007.2 |
| 20260904053448 | 62 | 229 | 0.0 | 3.0 | 0.00 | 1.26 | 0.00 | 99 | 1007.2 |
| 20260904052947 | 62 | 255 | 0.0 | 3.0 | 0.00 | 1.26 | 0.00 | 99 | 1006.9 |
| 20260904052448 | 62 | 261 | 0.0 | 3.0 | 0.00 | 1.26 | 0.00 | 99 | 1006.9 |
| 20260904051946 | 62 | 282 | 2.0 | 4.0 | 0.00 | 1.26 | 0.00 | 99 | 1006.9 |
| 20260904051447 | 62 | 282 | 0.0 | 4.0 | 0.00 | 1.26 | 0.00 | 99 | 1006.9 |
| 20260904050945 | 62 | 331 | 1.0 | 4.0 | 0.01 | 1.26 | 0.00 | 99 | 1006.9 |
| 20260904050445 | 62 | 283 | 1.0 | 5.0 | 0.01 | 1.26 | 0.00 | 99 | 1006.5 |
| 20260904045945 | 62 | 303 | 2.0 | 5.0 | 0.01 | 1.26 | 1.26 | 99 | 1006.9 |
| 20260904045444 | 62 | 311 | 2.0 | 4.0 | 0.01 | 1.26 | 1.26 | 99 | 1006.9 |
| 20260904044944 | 63 | 323 | 2.0 | 4.0 | 0.01 | 1.26 | 1.26 | 99 | 1006.9 |
| 20260904044443 | 63 | 303 | 3.0 | 4.0 | 0.01 | 1.26 | 1.26 | 99 | 1006.9 |
| 20260904043944 | 63 | 295 | 4.0 | 4.0 | 0.01 | 1.26 | 1.26 | 99 | 1007.2 |
| 20260904043444 | 63 | 270 | 1.0 | 3.0 | 0.01 | 1.26 | 1.26 | 99 | 1007.5 |
| 20260904042943 | 63 | 254 | 1.0 | 2.0 | 0.01 | 1.26 | 1.26 | 99 | 1007.5 |
| 20260904042444 | 63 | 311 | 2.0 | 2.0 | 0.01 | 1.26 | 1.26 | 99 | 1007.5 |
| 20260904041942 | 62 | 0 | 0.0 | 0.0 | 0.03 | 1.26 | 1.26 | 99 | 1007.5 |
| 20260904041444 | 62 | 0 | 0.0 | 0.0 | 0.08 | 1.26 | 1.26 | 99 | 1007.9 |
| 20260904040941 | 62 | 0 | 0.0 | 1.0 | 0.16 | 1.25 | 1.25 | 99 | 1007.9 |
| 20260904040443 | 62 | 0 | 0.0 | 2.0 | 0.37 | 1.25 | 1.25 | 99 | 1007.5 |
| 20260904035941 | 62 | 337 | 0.0 | 2.0 | 0.45 | 1.25 | 1.25 | 99 | 1007.2 |
| 20260904035443 | 63 | 254 | 0.0 | 3.0 | 0.47 | 1.25 | 1.25 | 99 | 1007.2 |
| 20260904034940 | 63 | 294 | 0.0 | 3.0 | 0.47 | 1.25 | 1.25 | 99 | 1007.2 |
| 20260904034442 | 63 | 286 | 1.0 | 3.0 | 0.47 | 1.25 | 1.25 | 99 | 1007.2 |
| 20260904033940 | 63 | 297 | 0.0 | 5.0 | 0.47 | 1.25 | 1.25 | 99 | 1006.9 |
| 20260904033441 | 63 | 270 | 0.0 | 5.0 | 0.47 | 1.25 | 1.25 | 99 | 1006.9 |
| 20260904032939 | 63 | 264 | 1.0 | 6.0 | 0.47 | 1.25 | 1.25 | 99 | 1007.2 |
| 20260904032441 | 63 | 270 | 2.0 | 6.0 | 0.47 | 1.25 | 1.25 | 99 | 1006.9 |
| 20260904031938 | 63 | 298 | 3.0 | 6.0 | 0.44 | 1.22 | 1.22 | 99 | 1007.2 |
| 20260904031438 | 63 | 301 | 2.0 | 4.0 | 0.39 | 1.17 | 1.16 | 99 | 1007.9 |
| 20260904030440 | 64 | 229 | 0.0 | 4.0 | 0.10 | 0.88 | 0.87 | 99 | 1008.5 |
| 20260904025937 | 64 | 353 | 0.0 | 3.0 | 0.02 | 0.80 | 0.79 | 99 | 1008.5 |
| 20260904025437 | 65 | 194 | 0.0 | 3.0 | 0.00 | 0.78 | 0.78 | 99 | 1008.5 |
| 20260904024937 | 65 | 180 | 1.0 | 6.0 | 0.00 | 0.78 | 0.78 | 99 | 1007.2 |
| 20260904024438 | 65 | 235 | 2.0 | 6.0 | 0.00 | 0.78 | 0.78 | 99 | 1006.1 |
| 20260904023438 | 64 | 319 | 2.0 | 6.0 | 0.00 | 0.78 | 0.78 | 99 | 1005.7 |
| 20260904022936 | 64 | 337 | 2.0 | 6.0 | 0.00 | 0.78 | 0.78 | 99 | 1005.7 |
| 20260904022437 | 64 | 285 | 5.0 | 5.0 | 0.00 | 0.78 | 0.78 | 99 | 1005.7 |
| 20260904021935 | 64 | 295 | 4.0 | 6.0 | 0.00 | 0.78 | 0.78 | 99 | 1005.4 |
| 20260904021435 | 64 | 268 | 5.0 | 6.0 | 0.00 | 0.78 | 0.78 | 99 | 1005.4 |
| 20260904020435 | 64 | 270 | 2.0 | 5.0 | 0.00 | 0.78 | 0.78 | 99 | 1005.4 |
| 20260904015934 | 64 | 247 | 2.0 | 5.0 | 0.00 | 0.78 | 0.78 | 99 | 1005.4 |
| 20260904015435 | 63 | 355 | 2.0 | 7.0 | 0.00 | 0.78 | 0.78 | 99 | 1005.4 |
| 20260904014431 | 63 | 305 | 2.0 | 6.0 | 0.00 | 0.78 | 0.78 | 99 | 1005.1 |
| 20260904013929 | 63 | 285 | 0.0 | 6.0 | 0.00 | 0.78 | 0.78 | 99 | 1005.1 |
| 20260904013431 | 63 | 257 | 2.0 | 6.0 | 0.00 | 0.78 | 0.78 | 99 | 1005.4 |
| 20260904012929 | 63 | 252 | 2.0 | 6.0 | 0.00 | 0.78 | 0.78 | 99 | 1005.4 |
| 20260904012430 | 63 | 243 | 2.0 | 7.0 | 0.00 | 0.78 | 0.78 | 99 | 1005.4 |
| 20260904011930 | 63 | 277 | 4.0 | 7.0 | 0.00 | 0.78 | 0.78 | 99 | 1005.7 |
| 20260904011429 | 64 | 273 | 3.0 | 6.0 | 0.00 | 0.78 | 0.78 | 99 | 1005.7 |
| 20260904010929 | 63 | 270 | 1.0 | 6.0 | 0.00 | 0.78 | 0.78 | 99 | 1005.7 |
| 20260904010429 | 63 | 289 | 1.0 | 4.0 | 0.00 | 0.78 | 0.78 | 99 | 1005.7 |
| 20260904005929 | 64 | 281 | 2.0 | 3.0 | 0.00 | 0.78 | 0.78 | 99 | 1005.7 |
| 20260904005430 | 64 | 297 | 1.0 | 3.0 | 0.00 | 0.78 | 0.78 | 99 | 1005.7 |
| 20260904004929 | 64 | 331 | 0.0 | 6.0 | 0.00 | 0.78 | 0.78 | 99 | 1005.7 |